EW3721 Weather Reports


time (UTC)temp
C
wind
direction
speed
KPH
gust
KPH
rain 1hr
cm
rain 24hr
cm
rain mn
cm
humidity
%
barometer
mb
20260506163605 17 221 1.6 9.7 0.00 0.00 0.00 81 1009.8
20260506163105 17 234 4.8 9.7 0.00 0.00 0.00 80 1009.8
20260506162606 17 218 1.6 4.8 0.00 0.00 0.00 79 1009.8
20260506162106 17 225 1.6 12.9 0.00 0.00 0.00 78 1009.8
20260506161605 17 208 3.2 12.9 0.00 0.00 0.00 77 1009.8
20260506161106 18 269 3.2 4.8 0.00 0.00 0.00 77 1009.8
20260506160606 18 176 4.8 14.5 0.00 0.00 0.00 77 1009.8
20260506160106 18 215 3.2 9.7 0.00 0.00 0.00 77 1009.9
20260506155106 18 213 3.2 11.3 0.00 0.00 0.00 78 1010.1
20260506154606 18 175 3.2 25.7 0.00 0.00 0.00 79 1010.0
20260506153605 18 207 3.2 9.7 0.00 0.00 0.00 79 1010.1
20260506152106 18 194 3.2 12.9 0.00 0.00 0.00 78 1010.1
20260506151605 18 198 3.2 9.7 0.00 0.00 0.00 78 1010.0
20260506151105 18 214 3.2 9.7 0.00 0.00 0.00 78 1009.9
20260506150605 18 221 1.6 4.8 0.00 0.00 0.00 77 1010.0
20260506150105 18 194 3.2 4.8 0.00 0.00 0.00 77 1010.0
20260506145606 18 189 3.2 14.5 0.00 0.00 0.00 76 1010.1
20260506145105 18 193 3.2 8.0 0.00 0.00 0.00 76 1009.9
20260506144605 18 197 1.6 12.9 0.00 0.00 0.00 75 1010.0
20260506144105 18 206 4.8 9.7 0.00 0.00 0.00 76 1010.1
20260506142606 19 207 3.2 4.8 0.00 0.00 0.00 74 1010.3
20260506142106 19 213 3.2 14.5 0.00 0.00 0.00 76 1010.2
20260506141605 19 153 4.8 8.0 0.00 0.00 0.00 76 1010.3
20260506141106 19 198 4.8 19.3 0.00 0.00 0.00 76 1010.2
20260506140606 19 190 6.4 12.9 0.00 0.00 0.00 76 1010.2
20260506140105 18 214 4.8 9.7 0.00 0.00 0.00 79 1010.2
20260506135605 18 201 1.6 8.0 0.00 0.00 0.00 78 1010.4
20260506134606 18 202 3.2 12.9 0.00 0.00 0.00 80 1010.3
20260506133106 17 203 3.2 8.0 0.00 0.00 0.00 80 1010.2
20260506132605 17 191 3.2 12.9 0.00 0.00 0.00 80 1010.0
20260506132105 17 213 3.2 11.3 0.00 0.00 0.00 80 1010.1
20260506131605 17 192 3.2 14.5 0.00 0.00 0.00 80 1010.1
20260506131105 17 204 1.6 8.0 0.00 0.00 0.00 80 1010.0
20260506130605 17 197 3.2 9.7 0.00 0.00 0.00 79 1010.1
20260506130105 17 187 6.4 11.3 0.00 0.00 0.00 80 1010.1
20260506125605 17 177 3.2 16.1 0.00 0.00 0.00 81 1010.2
20260506125105 17 136 1.6 4.8 0.00 0.00 0.00 80 1010.1
20260506124605 17 206 3.2 9.7 0.00 0.00 0.00 81 1010.2
20260506124105 17 209 3.2 9.7 0.00 0.00 0.00 81 1010.3
20260506123606 17 187 4.8 14.5 0.00 0.00 0.00 82 1010.5
20260506122105 17 181 4.8 14.5 0.00 0.00 0.00 85 1010.8
20260506121605 17 191 4.8 12.9 0.00 0.00 0.00 86 1010.6
20260506121105 16 192 4.8 14.5 0.00 0.00 0.00 87 1010.6
20260506120105 16 191 3.2 9.7 0.00 0.00 0.00 89 1010.5
20260506115605 15 188 4.8 12.9 0.00 0.00 0.00 90 1010.6
20260506115105 15 183 4.8 14.5 0.00 0.00 0.00 91 1010.5
20260506114605 15 170 1.6 8.0 0.00 0.00 0.00 91 1010.6
20260506114105 15 196 4.8 11.3 0.00 0.00 0.00 92 1010.5
20260506113105 14 196 3.2 9.7 0.00 0.00 0.00 93 1010.6
20260506112605 14 186 0.0 8.0 0.00 0.00 0.00 93 1010.6
20260506112105 14 204 1.6 8.0 0.00 0.00 0.00 93 1010.7
20260506111605 13 186 1.6 8.0 0.00 0.00 0.00 93 1010.6
20260506111106 13 192 3.2 9.7 0.00 0.00 0.00 93 1010.7
20260506110605 13 188 4.8 12.9 0.00 0.00 0.00 93 1010.8
20260506110105 13 184 1.6 11.3 0.00 0.00 0.00 93 1010.8
20260506105605 13 175 1.6 4.8 0.00 0.00 0.00 93 1010.8
20260506105105 13 196 3.2 16.1 0.00 0.00 0.00 93 1010.7
20260506104605 13 210 1.6 4.8 0.00 0.00 0.00 93 1010.6
20260506104105 13 201 3.2 14.5 0.00 0.00 0.00 93 1010.6
20260506103105 13 211 0.0 3.2 0.00 0.00 0.00 93 1010.8
20260506102605 13 211 0.0 3.2 0.00 0.00 0.00 92 1010.7
20260506102105 13 196 1.6 4.8 0.00 0.00 0.00 92 1010.7
20260506101605 13 155 0.0 3.2 0.00 0.00 0.00 92 1010.7
20260506101105 13 214 0.0 4.8 0.00 0.00 0.00 92 1010.7
20260506100605 13 212 0.0 3.2 0.00 0.00 0.00 92 1010.6
20260506100105 13 195 0.0 1.6 0.00 0.00 0.00 92 1010.6
20260506095605 13 195 0.0 1.6 0.00 0.00 0.00 91 1010.6
20260506094605 13 180 0.0 4.8 0.00 0.00 0.00 91 1010.5
20260506094105 13 173 3.2 4.8 0.00 0.00 0.00 91 1010.5
20260506093605 13 178 1.6 4.8 0.00 0.00 0.00 91 1010.5
20260506093105 13 198 0.0 4.8 0.00 0.00 0.00 91 1010.5
20260506092605 13 202 3.2 8.0 0.00 0.00 0.00 91 1010.5
20260506092105 13 193 1.6 9.7 0.00 0.00 0.00 91 1010.5
20260506091605 13 204 1.6 9.7 0.00 0.00 0.00 91 1010.7
20260506090604 13 217 1.6 4.8 0.00 0.00 0.00 91 1010.6
20260506090105 13 179 0.0 3.2 0.00 0.00 0.00 91 1010.6
20260506085605 13 144 1.6 4.8 0.00 0.00 0.00 91 1010.7
20260506085105 13 189 1.6 4.8 0.00 0.00 0.00 90 1010.7
20260506084605 13 190 0.0 4.8 0.00 0.00 0.00 90 1010.7
20260506084105 13 158 0.0 4.8 0.00 0.00 0.00 90 1010.8
20260506083605 13 208 1.6 8.0 0.00 0.00 0.00 90 1010.8
20260506083105 13 196 1.6 3.2 0.00 0.00 0.00 90 1010.8
20260506082105 13 194 1.6 4.8 0.00 0.00 0.00 90 1010.9
20260506081605 13 191 3.2 9.7 0.00 0.00 0.00 90 1010.8
20260506081105 13 208 1.6 9.7 0.00 0.00 0.00 90 1010.8
20260506080605 13 198 0.0 8.0 0.00 0.00 0.00 90 1010.7
20260506073105 13 168 1.6 8.0 0.00 0.00 0.00 88 1010.9
20260506072605 13 159 1.6 3.2 0.00 0.00 0.00 88 1010.9
20260506072104 13 202 3.2 12.9 0.00 0.00 0.00 88 1011.0
20260506071604 13 196 1.6 8.0 0.00 0.00 0.00 88 1011.0
20260506071105 13 177 0.0 11.3 0.00 0.00 0.00 88 1011.0
20260506070605 13 215 1.6 4.8 0.00 0.00 0.00 87 1011.0
20260506070105 13 171 0.0 4.8 0.00 0.00 0.00 87 1011.0
20260506062105 14 200 0.0 3.2 0.00 0.00 0.00 85 1010.9
20260506061605 14 202 0.0 0.0 0.00 0.00 0.00 84 1010.9
20260506061104 14 200 0.0 0.0 0.00 0.00 0.00 84 1010.9
20260506060605 15 200 0.0 4.8 0.00 0.00 0.00 84 1011.0
20260506051105 15 159 1.6 4.8 0.00 0.00 0.00 81 1011.2
20260506050605 15 182 0.0 1.6 0.00 0.00 0.00 80 1011.3
20260506045104 16 219 1.6 8.0 0.00 0.00 0.00 80 1011.2
20260506044605 16 240 0.0 3.2 0.00 0.00 0.00 80 1011.3
20260506044104 16 232 1.6 4.8 0.00 0.00 0.00 80 1011.3
20260506043605 16 195 1.6 4.8 0.00 0.00 0.00 80 1011.3
20260506042604 16 186 0.0 9.7 0.00 0.00 0.00 79 1011.3
20260506042105 16 180 1.6 9.7 0.00 0.00 0.00 79 1011.3
20260506041104 16 183 3.2 4.8 0.00 0.00 0.00 78 1011.3
20260506040604 16 188 3.2 16.1 0.00 0.00 0.00 78 1011.3
20260506040105 16 212 1.6 8.0 0.00 0.00 0.00 78 1011.4
20260506034604 16 199 1.6 11.3 0.00 0.00 0.00 77 1011.3
20260506034104 16 207 1.6 4.8 0.00 0.00 0.00 77 1011.2
20260506033605 16 148 1.6 8.0 0.00 0.00 0.00 77 1011.3
20260506033105 16 173 1.6 4.8 0.00 0.00 0.00 76 1011.2
20260506032605 16 205 3.2 4.8 0.00 0.00 0.00 76 1011.2
20260506032104 16 213 4.8 9.7 0.00 0.00 0.00 76 1011.2
20260506031104 16 193 3.2 8.0 0.00 0.00 0.00 75 1011.2
20260506030105 16 214 4.8 9.7 0.00 0.00 0.00 75 1011.3
20260506025605 16 193 3.2 12.9 0.00 0.00 0.00 74 1011.3
20260506025106 16 204 1.6 9.7 0.00 0.00 0.00 74 1011.3
20260506024105 16 210 1.6 14.5 0.00 0.00 0.00 74 1011.4
20260506023605 16 202 3.2 8.0 0.00 0.00 0.00 74 1011.3
20260506023104 16 193 1.6 8.0 0.00 0.00 0.00 74 1011.2
20260506022604 16 185 4.8 9.7 0.00 0.00 0.00 74 1011.3
20260506022104 16 234 1.6 9.7 0.00 0.00 0.00 74 1011.2
20260506021604 16 200 1.6 8.0 0.00 0.00 0.00 73 1011.2
20260506021104 16 205 3.2 11.3 0.00 0.00 0.00 73 1011.1
20260506020604 16 183 1.6 4.8 0.00 0.00 0.00 73 1011.1
20260506020105 16 215 3.2 9.7 0.00 0.00 0.00 73 1011.1
20260506015604 16 206 1.6 4.8 0.00 0.00 0.00 73 1011.0
20260506015104 16 196 4.8 14.5 0.00 0.00 0.00 73 1011.1
20260506014604 16 170 6.4 16.1 0.00 0.00 0.00 73 1011.0
20260506014104 16 209 4.8 8.0 0.00 0.00 0.00 73 1010.9
20260506013604 16 186 4.8 14.5 0.00 0.00 0.00 73 1010.8
20260506012604 16 212 3.2 9.7 0.00 0.00 0.00 72 1010.7
20260506012104 16 198 1.6 4.8 0.00 0.00 0.00 72 1010.7
20260506011604 16 205 1.6 4.8 0.00 0.00 0.00 72 1010.6
20260506010605 17 184 1.6 8.0 0.00 0.00 0.00 71 1010.5
20260506010104 17 190 1.6 9.7 0.00 0.00 0.00 71 1010.5
20260506005605 17 198 3.2 8.0 0.00 0.00 0.00 70 1010.4
20260506005105 17 209 1.6 4.8 0.00 0.00 0.00 70 1010.2
20260506004604 17 214 3.2 9.7 0.00 0.00 0.00 70 1010.2
20260506004105 17 197 3.2 8.0 0.00 0.00 0.00 70 1010.2
20260506003104 17 163 3.2 12.9 0.00 0.00 0.00 70 1010.0
20260506002604 17 212 1.6 8.0 0.00 0.00 0.00 69 1010.0
20260506002105 17 201 3.2 14.5 0.00 0.00 0.00 69 1010.0
20260506001604 17 184 1.6 9.7 0.00 0.00 0.00 68 1009.9
20260506001105 17 203 3.2 4.8 0.00 0.00 0.00 68 1009.7
20260506000604 17 204 1.6 19.3 0.00 0.00 0.00 68 1009.8
20260505235104 18 179 1.6 4.8 0.00 0.00 0.00 67 1009.6
20260505234105 18 166 0.0 4.8 0.00 0.00 0.00 66 1009.5
20260505233604 18 221 1.6 9.7 0.00 0.00 0.00 65 1009.5
20260505233104 18 198 1.6 4.8 0.00 0.00 0.00 65 1009.4
20260505231604 18 179 3.2 11.3 0.00 0.00 0.00 64 1009.2
20260505231104 19 199 3.2 11.3 0.00 0.00 0.00 65 1009.1
20260505230605 19 217 3.2 9.7 0.00 0.00 0.00 64 1009.0
20260505230105 19 193 3.2 12.9 0.00 0.00 0.00 63 1009.0
20260505225605 19 187 4.8 8.0 0.00 0.00 0.00 64 1009.0
20260505225104 20 204 1.6 11.3 0.00 0.00 0.00 63 1008.9
20260505224604 20 172 3.2 12.9 0.00 0.00 0.00 62 1008.7
20260505224104 20 204 3.2 8.0 0.00 0.00 0.00 63 1009.0
20260505223605 20 197 1.6 8.0 0.00 0.00 0.00 63 1008.9
20260505223105 20 179 3.2 16.1 0.00 0.00 0.00 61 1009.0
20260505222605 20 179 4.8 14.5 0.00 0.00 0.00 61 1009.0
20260505221604 21 188 3.2 9.7 0.00 0.00 0.00 60 1009.0
20260505220604 21 206 3.2 16.1 0.00 0.00 0.00 60 1009.0
20260505220104 21 181 4.8 19.3 0.00 0.00 0.00 59 1009.0
20260505215605 21 217 4.8 9.7 0.00 0.00 0.00 59 1008.9
20260505215104 21 203 4.8 16.1 0.00 0.00 0.00 59 1008.9
20260505213104 22 174 4.8 20.9 0.00 0.00 0.00 56 1008.7
20260505212604 22 184 4.8 11.3 0.00 0.00 0.00 55 1008.7
20260505212104 23 192 8.0 19.3 0.00 0.00 0.00 55 1008.6
20260505211604 23 218 3.2 16.1 0.00 0.00 0.00 55 1008.5
20260505211104 23 204 4.8 19.3 0.00 0.00 0.00 54 1008.6
20260505210104 23 182 1.6 4.8 0.00 0.00 0.00 55 1008.7
20260505205604 23 192 1.6 4.8 0.00 0.00 0.00 55 1008.7
20260505205104 23 200 3.2 12.9 0.00 0.00 0.00 55 1008.7
20260505204604 23 180 3.2 9.7 0.00 0.00 0.00 55 1008.6
20260505204104 23 191 3.2 8.0 0.00 0.00 0.00 55 1008.5
20260505203604 23 181 4.8 19.3 0.00 0.00 0.00 56 1008.6
20260505203104 23 207 3.2 9.7 0.00 0.00 0.00 56 1008.6
20260505202605 23 189 4.8 14.5 0.00 0.00 0.00 55 1008.7
20260505202105 23 166 4.8 11.3 0.00 0.00 0.00 55 1008.8
20260505201604 23 191 3.2 14.5 0.00 0.00 0.00 56 1008.8
20260505201104 23 192 4.8 19.3 0.00 0.00 0.00 54 1008.9
20260505200104 24 185 8.0 11.3 0.00 0.00 0.00 53 1008.9
20260505195604 24 204 1.6 11.3 0.00 0.00 0.00 55 1008.9
20260505195104 23 204 8.0 11.3 0.00 0.00 0.00 55 1008.9
20260505193105 24 181 8.0 19.3 0.00 0.00 0.00 55 1009.1
20260505192603 24 178 4.8 16.1 0.00 0.00 0.00 54 1009.2
20260505192104 24 185 3.2 14.5 0.00 0.00 0.00 57 1009.2
20260505190604 24 189 4.8 19.3 0.00 0.00 0.00 57 1009.5
20260505190104 24 194 4.8 12.9 0.00 0.00 0.00 57 1009.5
20260505185604 24 212 4.8 14.5 0.00 0.00 0.00 55 1009.6
20260505185104 23 187 8.0 16.1 0.00 0.00 0.00 56 1009.6
20260505184604 23 170 1.6 14.5 0.00 0.00 0.00 57 1009.6
20260505184104 23 179 4.8 19.3 0.00 0.00 0.00 56 1009.6
20260505183604 23 183 6.4 24.1 0.00 0.00 0.00 55 1009.6
20260505183104 23 194 4.8 19.3 0.00 0.00 0.00 56 1009.6
20260505182604 23 182 6.4 20.9 0.00 0.00 0.00 58 1009.7
20260505182104 23 193 4.8 16.1 0.00 0.00 0.00 57 1009.6
20260505181604 24 161 8.0 16.1 0.00 0.00 0.00 56 1009.7
20260505181104 24 185 8.0 19.3 0.00 0.00 0.00 56 1009.7
20260505180604 24 172 8.0 16.1 0.00 0.00 0.00 54 1009.7
20260505180104 25 210 3.2 19.3 0.00 0.00 0.00 54 1009.7
20260505175604 25 194 8.0 19.3 0.00 0.00 0.00 53 1009.7
20260505175105 25 179 6.4 19.3 0.00 0.00 0.00 52 1009.6
20260505174604 25 194 6.4 19.3 0.00 0.00 0.00 53 1009.6
20260505174104 25 181 4.8 14.5 0.00 0.00 0.00 53 1009.8
20260505173604 25 163 6.4 19.3 0.00 0.00 0.00 55 1009.9
20260505172607 24 175 3.2 8.0 0.00 0.00 0.00 57 1010.0
20260505172107 23 176 9.7 16.1 0.00 0.00 0.00 56 1009.9
20260505171604 23 180 4.8 16.1 0.00 0.00 0.00 56 1009.9
20260505171104 23 186 8.0 14.5 0.00 0.00 0.00 56 1009.9
20260505170604 23 179 8.0 16.1 0.00 0.00 0.00 58 1009.9
20260505170104 23 185 4.8 19.3 0.00 0.00 0.00 57 1009.9
20260505165604 23 168 8.0 14.5 0.00 0.00 0.00 57 1010.0
20260505165104 23 208 6.4 14.5 0.00 0.00 0.00 59 1009.9
20260505164605 23 180 4.8 16.1 0.00 0.00 0.00 57 1010.1
20260505164103 23 176 6.4 16.1 0.00 0.00 0.00 57 1010.2